Theta_e
340 340 339 340 339 338 338 338 338 338 337 338 340 331 326 337 333 337 332 333 335 338 335 335 335 336 336 335 336 337 338 338 340 341 344 343 343 343 342 339 338 337 337
339 339 339 341 338 337 336 338 338 337 339 339 336 327 323 326 332 337 337 338 336 336 337 337 335 329 330 337 343 344 342 342 336 333 334 333 339 340 340 338 341 340 338
339 340 341 338 334 335 335 335 337 337 338 340 333 328 339 338 338 338 336 337 338 331 321 323 333 330 336 342 341 343 344 344 343 341 338 334 330 331 333 338 338 338 340
335 334 331 330 330 331 333 336 336 336 338 339 338 330 339 337 338 336 333 326 323 335 337 328 327 331 340 341 341 343 343 343 343 344 334 335 337 340 341 335 331 336 336
337 337 336 334 335 334 333 333 332 336 338 339 338 331 331 337 339 337 337 335 334 332 332 327 329 331 339 341 342 345 344 341 339 339 330 340 341 342 341 343 337 333 331
344 339 329 329 334 333 332 335 334 337 340 338 338 338 338 338 337 337 336 335 334 333 331 331 327 325 336 342 343 343 341 340 334 325 325 332 328 328 328 328 328 327 327
341 331 329 328 332 336 338 335 336 339 339 339 338 340 339 341 335 339 336 338 330 328 329 329 328 325 336 342 341 341 342 341 332 324 326 339 339 341 339 327 325 325 325
330 336 331 329 333 334 338 337 337 339 338 338 339 338 340 339 338 335 333 331 330 329 327 325 324 325 333 342 343 343 343 344 335 325 327 330 332 326 325 324 324 325 325
338 337 337 331 333 335 333 338 338 338 339 334 336 335 333 335 334 334 333 332 330 327 326 325 325 327 331 341 343 342 343 345 340 330 324 324 324 324 324 324 325 326 328
345 342 341 334 337 334 336 339 338 339 335 336 335 329 331 335 335 336 333 331 328 327 326 325 330 335 337 338 340 341 344 342 338 332 323 323 324 324 324 326 330 333 336
347 344 343 343 341 337 336 336 338 338 337 336 337 333 333 336 336 338 339 338 335 339 343 342 341 341 340 338 339 339 341 341 339 327 324 324 324 326 329 335 337 338 338
345 347 344 344 341 334 337 335 340 344 344 342 343 346 346 338 337 340 339 339 340 342 345 345 344 345 343 341 340 337 339 339 337 324 323 324 327 333 338 337 337 340 344
345 346 344 344 343 340 344 346 341 343 345 344 342 343 340 338 339 339 342 343 342 341 344 345 332 344 345 342 341 339 338 336 334 323 324 329 336 338 336 338 343 344 345
345 345 346 343 344 342 346 345 342 342 343 342 343 341 341 336 335 339 341 339 342 341 342 343 336 341 343 342 344 341 338 337 330 324 330 337 337 335 339 342 344 345 345
345 345 344 341 345 344 346 348 344 345 346 343 344 344 344 344 339 335 342 336 341 344 341 343 341 345 344 344 342 340 341 339 337 333 338 335 334 338 341 343 345 344 345
346 346 344 341 342 345 346 346 345 345 343 341 342 343 344 344 341 339 343 341 342 344 343 342 343 343 342 342 344 343 341 341 340 339 334 333 337 340 342 343 344 345 345
346 344 342 341 343 345 346 345 344 345 345 343 340 343 343 346 346 343 345 346 340 342 344 344 346 344 343 343 344 344 342 342 342 345 346 342 340 341 343 342 342 341 341
344 342 342 339 342 343 343 344 345 345 347 346 342 342 343 347 346 344 342 343 345 346 345 344 345 346 344 346 345 344 343 340 345 346 347 348 347 342 346 344 347 347 343
343 339 343 342 341 341 342 345 345 344 345 345 347 344 344 343 345 344 346 346 347 345 346 345 344 344 344 345 345 344 344 345 345 345 345 347 347 348 348 350 352 350 349
341 343 344 344 342 343 346 347 346 347 344 347 347 347 343 346 344 348 346 345 345 346 345 344 343 345 345 345 346 344 345 345 344 344 340 344 346 347 347 348 347 350 351
340 344 345 343 342 341 346 348 347 344 346 348 348 346 344 347 347 347 343 338 347 345 344 340 345 344 343 343 344 344 345 344 344 345 345 343 344 347 347 347 345 344 352
340 344 344 344 342 342 344 346 346 345 347 346 347 347 345 346 347 347 344 345 347 345 341 346 350 350 343 342 348 348 343 343 345 344 344 345 343 345 346 347 345 349 350
341 346 344 343 341 343 347 348 347 346 348 347 346 345 346 346 345 346 348 347 347 348 343 347 347 349 342 345 345 347 349 349 347 345 344 344 343 345 348 346 347 349 351
343 341 345 344 342 343 348 348 347 347 347 347 348 346 346 345 345 346 346 347 345 348 348 347 348 350 350 350 347 348 345 345 342 342 344 344 343 345 346 345 342 344 342
345 343 343 343 343 345 347 348 348 347 349 348 347 347 347 347 347 346 345 346 345 348 345 347 346 345 350 349 347 349 347 345 344 336 337 339 342 344 342 343 343 339 336
345 343 342 341 343 344 346 348 345 344 349 347 348 345 347 347 349 347 348 346 346 346 348 344 345 343 346 346 347 348 345 344 343 340 335 337 338 341 339 335 334 338 335
Wind_Speed
16 15 17 17 18 17 17 15 15 16 16 17 19 18 21 22 22 25 25 24 24 23 22 22 22 22 23 24 25 25 23 22 20 19 20 20 20 21 18 14 16 17 16
18 17 16 17 17 18 16 15 15 15 16 17 18 19 22 23 23 22 22 22 22 22 21 20 22 22 22 23 25 26 25 24 22 17 17 18 18 18 15 16 17 17 16
20 19 18 17 16 16 14 14 14 15 17 17 19 21 22 22 21 20 20 21 21 20 19 18 21 23 25 25 24 23 21 19 21 18 15 18 18 16 16 16 15 16 15
21 19 17 15 14 14 13 13 13 15 17 17 19 20 19 20 19 19 20 20 20 20 19 18 20 23 24 21 23 23 20 19 17 11 13 17 18 17 15 15 14 13 13
19 17 16 15 14 13 13 13 14 15 16 18 18 20 20 19 18 18 18 19 19 19 18 18 19 22 23 21 24 20 20 14 11 6 11 15 17 14 13 12 11 11 12
16 14 13 14 14 14 15 15 15 15 18 17 18 18 18 18 19 18 18 17 16 16 16 16 18 20 25 24 23 20 18 14 6 10 13 14 13 12 11 10 9 9 9
16 15 15 15 14 15 16 16 16 16 17 17 17 17 17 17 18 18 17 17 17 16 15 16 18 20 23 23 24 18 15 12 12 12 14 13 14 12 9 11 10 10 9
18 17 16 16 16 16 16 16 16 17 17 15 15 16 16 15 16 17 17 18 18 17 17 17 18 19 20 23 21 17 15 13 13 11 10 10 11 10 9 10 11 12 12
18 17 16 17 17 16 16 16 16 17 17 15 15 14 15 15 17 18 18 18 18 19 19 20 21 22 20 20 18 16 14 11 10 11 8 9 11 11 11 12 13 12 12
16 16 18 16 17 17 17 17 18 18 19 18 17 15 15 17 17 17 19 20 22 24 23 23 23 23 23 21 18 13 12 8 9 11 6 9 11 12 12 14 13 12 12
16 14 14 15 14 17 17 19 19 18 18 18 19 19 16 15 16 17 18 19 21 18 19 20 17 17 18 18 17 16 10 6 6 6 7 10 12 14 14 13 12 12 13
18 19 15 15 18 19 22 20 21 21 17 14 13 15 13 12 10 15 16 18 15 13 13 11 7 12 13 15 16 14 11 7 7 4 8 11 13 14 14 13 13 14 15
18 18 19 16 14 15 19 16 19 16 14 13 13 17 15 10 9 12 13 9 12 9 13 10 20 16 10 9 13 13 12 7 10 6 10 12 14 14 15 15 14 14 15
19 19 19 18 17 13 11 17 13 21 15 12 16 16 15 10 10 8 6 4 8 15 12 7 7 15 14 14 11 8 10 5 10 8 12 13 14 14 15 14 14 14 15
21 20 19 17 16 11 7 13 15 16 15 10 12 12 13 8 9 7 10 9 8 11 13 14 11 13 12 9 8 8 6 3 10 11 13 14 14 14 14 14 15 15 15
26 22 18 14 13 9 12 19 18 14 13 11 13 10 18 11 6 3 6 9 9 10 7 5 9 10 8 9 6 8 7 5 8 14 13 13 13 14 14 14 15 16 16
24 19 13 15 17 13 15 16 17 15 10 9 12 13 14 11 7 7 6 5 4 5 5 6 1 8 8 13 12 6 6 8 8 6 6 12 12 13 14 15 17 19 18
21 13 11 17 17 16 15 14 19 12 11 4 4 7 10 9 6 11 12 7 3 3 6 3 9 3 7 4 9 7 4 4 7 4 3 1 3 10 13 14 15 16 18
18 14 14 17 13 18 17 16 16 12 7 6 5 5 4 10 8 7 7 6 6 6 5 8 7 10 6 6 4 3 2 5 7 6 4 3 1 2 3 5 7 9 11
15 17 18 16 18 21 17 14 17 14 11 9 7 1 3 7 8 10 6 5 4 12 7 5 7 8 8 5 4 8 4 1 2 3 6 3 1 1 3 5 6 5 6
18 19 23 19 15 15 18 15 16 17 11 10 10 1 7 3 5 4 4 7 6 7 6 5 7 7 6 3 5 7 6 5 6 2 3 3 3 5 3 8 8 7 4
22 20 22 19 16 19 17 13 12 13 9 6 5 4 6 4 8 7 6 3 5 3 3 3 3 6 6 6 6 1 6 6 9 5 6 9 2 5 5 9 12 11 6
22 23 20 18 17 18 15 11 13 16 11 11 7 6 8 5 9 5 4 2 5 2 4 5 3 5 4 4 5 7 1 2 5 11 3 3 3 7 7 7 9 7 6
24 25 23 21 20 23 15 18 13 15 16 13 10 8 5 6 4 2 8 4 5 1 7 3 1 2 5 9 5 6 8 6 5 3 2 4 14 7 7 6 21 14 9
24 25 25 25 22 23 18 15 16 15 10 11 11 9 9 8 8 5 4 6 8 5 7 3 4 3 3 6 9 13 9 7 9 1 17 16 12 14 15 10 18 19 19
25 24 26 24 21 27 20 17 20 16 13 13 17 10 11 9 13 9 9 7 9 9 5 8 7 5 3 1 4 7 12 9 9 8 6 14 21 10 11 15 19 21 21
Wind_Direction
154 141 125 120 115 109 109 107 103 102 100 98 94 94 106 104 100 101 100 103 103 100 102 101 103 104 105 103 100 98 95 95 94 95 99 100 100 98 97 100 98 97 97
139 138 131 124 117 117 114 106 104 100 99 101 98 97 103 106 106 103 104 105 105 104 103 102 101 102 108 102 102 97 93 90 88 92 103 106 102 101 103 100 96 95 97
140 137 130 128 121 113 113 112 109 106 105 105 101 105 103 105 104 103 104 104 105 101 100 103 102 105 108 106 99 93 94 88 80 82 97 97 100 102 102 102 99 101 95
137 137 136 130 123 120 118 113 110 109 110 107 106 109 112 109 108 109 105 105 105 101 100 101 106 112 111 108 97 95 100 106 93 99 105 104 102 95 94 90 96 97 97
134 134 132 123 121 123 118 114 118 115 115 114 111 110 113 111 111 109 109 105 104 103 99 100 107 113 121 111 103 105 98 100 105 127 111 103 101 98 99 101 96 94 96
129 132 129 127 123 121 120 116 118 118 117 117 117 114 114 112 109 106 106 108 108 105 104 103 108 114 125 117 110 105 102 88 89 118 111 108 101 99 100 100 97 96 98
135 135 128 127 124 121 119 118 118 117 117 117 119 117 112 109 107 107 103 106 104 105 107 106 107 114 130 115 113 114 112 72 70 101 111 108 101 93 92 97 95 88 88
131 128 124 129 130 126 121 117 119 119 115 116 116 116 114 110 106 105 103 104 103 103 102 99 101 109 124 119 121 109 115 81 80 91 103 102 104 102 93 84 84 81 76
110 120 125 128 130 124 123 119 118 117 112 109 112 118 119 110 110 107 103 101 97 95 94 94 95 97 109 123 109 102 104 108 59 51 82 100 99 97 91 87 81 81 79
105 98 109 120 119 121 121 111 111 113 111 106 107 114 115 114 117 109 104 101 98 97 94 97 102 102 102 106 113 107 110 100 58 25 75 96 98 95 92 86 83 80 76
120 113 107 99 96 117 118 111 112 115 120 114 113 112 108 110 119 114 105 101 107 103 99 95 96 102 106 106 97 95 116 163 62 35 95 103 102 98 93 88 85 78 73
141 139 123 111 104 116 112 113 120 115 114 110 113 120 97 85 104 110 106 101 104 102 89 96 127 123 119 115 108 107 91 66 23 70 103 105 104 101 95 89 82 78 72
147 148 132 125 117 118 111 112 122 111 102 98 107 101 109 123 140 142 124 94 104 90 89 91 133 87 125 126 120 105 112 45 26 91 107 108 104 100 95 91 84 74 67
140 146 145 137 151 148 126 112 106 124 112 108 113 124 120 141 118 175 130 175 122 101 121 116 96 83 83 101 89 127 138 45 36 93 106 106 103 99 94 86 78 71 66
150 149 153 146 142 150 183 159 122 122 133 158 140 134 134 132 78 91 101 104 114 104 98 111 130 99 95 99 116 137 127 158 56 95 104 105 101 96 89 83 76 70 63
148 162 153 150 150 154 150 154 138 133 151 156 153 137 131 131 108 111 64 76 84 97 104 130 123 127 138 145 139 109 141 114 105 80 94 96 97 95 90 83 75 68 63
153 147 154 166 154 135 133 139 145 146 151 135 111 129 137 136 140 140 114 115 53 81 143 161 178 189 132 112 131 134 108 180 132 119 81 78 85 92 86 78 73 68 64
163 157 163 171 161 160 144 145 148 153 159 120 94 125 138 136 152 139 122 134 132 200 110 89 88 147 207 92 117 132 38 97 154 113 146 132 80 77 77 74 61 58 58
159 155 155 155 172 173 158 153 159 152 158 150 119 60 119 164 155 138 126 154 200 187 99 75 81 68 178 198 163 139 289 90 136 153 233 217 237 278 16 34 30 31 40
154 149 152 148 143 152 153 153 153 174 166 173 188 173 117 159 146 162 162 179 145 111 109 87 106 81 85 153 298 203 210 36 268 63 132 141 298 267 25 16 24 9 9
164 152 160 157 168 181 160 151 162 190 200 177 183 104 148 185 174 118 164 138 164 102 122 130 121 101 81 15 128 163 190 219 248 284 266 81 184 285 325 343 343 346 3
166 162 176 168 178 171 166 164 166 183 164 174 171 198 162 192 164 155 165 141 170 131 94 170 90 53 82 26 29 206 234 244 211 230 263 270 21 278 284 327 334 329 311
168 170 180 182 183 175 174 183 172 178 172 192 196 187 173 193 189 193 193 214 181 113 127 153 70 43 96 67 60 31 32 80 206 227 187 162 275 321 243 256 274 325 313
179 183 184 190 190 181 179 187 182 182 196 197 194 197 187 194 212 278 218 210 196 191 188 143 328 82 42 39 76 360 25 39 11 200 161 138 6 265 306 11 33 28 338
184 187 192 189 191 197 196 192 188 192 191 208 200 212 192 196 214 226 245 237 231 213 194 153 259 196 58 52 47 49 66 47 9 204 281 289 304 337 335 313 333 354 339
194 189 191 194 193 199 203 198 194 207 203 203 217 229 199 219 221 215 227 227 253 221 226 228 229 243 216 97 43 56 62 77 146 96 84 286 297 340 330 299 316 299 326